Wind_Speed
11 9 6 7 9 8 5 2 1 2 3 1 4 2 4 5 4 5 5 4 1 2 1 5 6 7 9 9 11 11 10 3 3 3 2 5 17 23 24 28 30 28 27 23 22 21 19 18 17 19 18 18 17 16 16 14 14 14 14 14 17 19 20 20 21 21 20 21 20 20 20 19 19 19 19 18 18 17 16 16 16 15 15 15 15 15 15 16 16 15 15 14 15 18 18 17 14
11 9 7 8 8 4 1 2 2 1 3 2 4 3 5 4 5 9 6 2 3 3 6 11 12 13 14 12 9 11 12 8 7 7 7 18 24 21 22 28 30 30 27 24 23 21 20 19 18 19 18 17 16 16 16 14 14 13 14 14 17 19 19 19 19 20 19 20 19 19 19 19 19 19 19 18 18 17 16 16 16 15 15 15 15 14 15 16 15 15 14 13 15 18 18 16 13
10 9 7 6 4 2 0 3 2 2 3 3 5 4 5 6 8 7 5 10 8 7 9 10 9 7 8 9 7 7 7 7 12 10 10 20 18 16 21 27 30 29 27 25 23 22 21 19 18 19 18 17 17 17 16 14 14 13 14 15 17 19 18 18 18 19 19 19 19 18 18 18 18 18 18 18 18 18 17 16 15 15 14 14 14 14 14 14 13 12 11 12 14 17 17 15 12
9 9 7 4 3 2 3 2 2 4 4 4 4 5 4 5 8 2 9 10 9 8 6 6 6 4 7 13 7 8 9 6 11 11 8 13 17 22 26 28 29 28 26 24 23 23 20 19 18 18 18 18 17 16 15 15 14 13 14 16 18 18 18 18 18 19 18 18 18 18 18 18 18 18 18 18 18 17 16 15 14 14 13 13 13 12 11 11 10 9 9 11 13 14 14 13 11
8 7 4 3 3 1 2 1 2 4 4 5 3 6 5 6 6 4 9 7 6 7 6 5 4 4 8 9 2 4 8 7 10 13 13 15 25 30 28 28 28 27 25 24 24 22 20 19 18 18 18 17 17 16 15 15 14 14 14 16 18 18 17 18 18 18 18 17 17 17 17 18 17 17 18 18 17 16 15 14 13 12 12 11 10 10 9 8 7 7 9 10 10 10 10 10 9
7 6 2 2 1 1 2 1 2 3 6 5 3 6 5 5 5 3 10 7 4 7 9 8 8 7 6 6 5 5 7 10 10 13 19 23 29 30 28 28 27 26 26 25 24 22 21 20 19 19 18 18 17 16 15 15 14 14 14 16 17 17 16 17 17 16 16 16 16 16 16 17 17 17 17 17 16 15 14 12 11 10 10 10 9 8 8 8 7 7 7 8 8 7 7 9 10
6 5 2 2 1 0 3 3 5 5 6 5 3 5 7 10 7 3 9 9 6 6 11 10 11 11 6 4 5 9 13 16 14 16 27 30 29 29 27 26 25 26 25 25 24 23 22 20 20 19 18 18 16 16 15 15 15 14 14 15 16 17 16 16 15 14 15 16 16 15 15 15 16 16 15 15 15 14 12 10 9 9 8 9 8 7 7 8 7 6 6 7 6 5 8 10 11
4 2 1 3 1 1 2 4 5 5 4 3 3 6 10 14 9 4 7 8 5 4 10 10 13 14 6 5 5 11 21 24 24 27 33 32 29 27 25 25 25 26 25 25 24 23 21 20 19 18 18 17 16 16 15 15 15 14 14 15 16 17 17 16 15 15 15 15 15 14 14 14 14 14 14 13 13 12 10 9 9 8 8 7 7 7 8 8 7 5 5 6 6 7 11 12 12
2 1 1 3 1 2 2 4 5 5 5 4 5 7 12 14 8 5 7 8 8 7 8 6 12 15 6 11 9 9 21 29 33 33 32 31 28 25 23 24 25 27 26 24 23 22 21 19 18 18 18 17 16 16 15 15 15 15 14 14 15 16 18 17 15 15 15 15 15 14 13 13 13 13 13 12 11 10 9 8 9 8 8 7 7 8 8 7 6 5 6 7 8 12 15 14 12
2 1 1 1 1 2 4 4 4 4 5 6 7 10 14 13 9 5 7 11 10 10 8 8 15 16 11 12 8 7 19 29 32 29 30 31 26 23 23 23 24 26 25 23 23 22 20 18 18 17 17 16 15 16 15 15 15 15 14 15 16 17 18 17 15 15 15 15 14 13 13 12 12 12 11 10 9 8 7 7 7 7 7 7 7 7 8 7 7 7 7 9 11 15 16 14 13
2 2 1 1 0 3 5 3 4 5 7 6 7 11 13 13 11 3 9 10 9 13 12 13 15 14 14 10 4 9 21 26 26 28 31 30 24 22 23 23 24 25 24 24 23 21 20 18 17 17 16 16 15 16 15 14 14 15 15 17 17 18 17 16 16 16 15 15 14 13 12 11 11 10 9 7 7 7 7 6 6 7 6 6 6 6 7 7 8 9 9 10 14 17 16 14 13
2 2 2 2 2 4 4 3 5 7 8 7 8 12 11 13 10 6 14 12 10 13 7 8 11 12 14 7 3 11 19 22 25 30 31 29 24 23 23 23 23 24 24 24 22 21 19 18 16 15 16 15 15 15 13 13 14 14 16 17 17 18 17 15 15 16 15 15 14 12 11 10 9 8 7 6 6 6 5 5 5 6 6 6 6 6 6 7 8 8 9 11 16 18 16 14 13
2 2 4 1 3 3 3 3 5 6 7 6 8 11 9 10 8 9 14 13 10 7 4 10 14 11 11 6 5 9 14 21 28 30 31 28 24 24 24 23 23 23 24 24 22 20 19 18 16 15 16 15 15 14 13 13 13 15 17 17 17 17 17 15 15 15 15 15 13 11 11 10 9 7 6 5 4 4 4 5 6 6 6 6 5 6 5 6 7 8 9 10 16 18 15 14 12
3 2 4 1 2 1 4 3 5 4 6 9 6 8 6 5 5 10 15 12 5 4 8 13 15 14 11 7 6 5 11 23 29 30 30 27 24 25 25 22 23 24 24 23 22 20 18 18 17 16 16 15 14 13 13 13 14 16 17 16 16 16 15 14 14 14 14 14 12 11 10 9 8 6 6 5 4 4 4 5 7 6 6 6 5 5 5 6 7 8 9 9 15 17 16 14 11
5 2 4 1 3 2 4 3 5 3 7 11 6 3 2 4 6 13 16 13 7 6 10 10 9 11 10 9 8 6 16 28 30 30 28 25 24 25 24 22 22 23 23 22 22 20 18 18 18 16 16 15 14 14 14 14 14 16 17 16 16 15 14 13 12 13 14 13 11 11 10 9 7 6 6 6 5 5 5 6 8 8 7 6 4 4 5 5 7 8 8 9 13 17 16 14 11
4 2 2 1 3 2 4 3 5 4 7 10 6 1 6 7 7 10 10 14 11 6 6 3 1 7 11 10 14 18 27 33 30 30 27 24 25 24 23 22 22 22 21 21 20 19 19 19 18 17 15 14 14 14 14 15 14 14 16 16 16 16 14 12 11 13 14 12 11 11 9 8 7 6 6 5 5 5 7 8 9 8 8 7 5 4 5 5 6 7 8 8 11 15 16 13 10
2 2 1 3 3 3 4 4 4 3 7 8 5 2 11 8 8 9 8 15 14 9 8 5 6 12 14 16 25 32 34 33 31 29 26 25 24 23 22 21 21 21 19 18 18 17 18 18 17 16 15 14 13 14 14 15 14 14 15 15 15 14 13 11 11 12 13 12 11 10 9 8 6 5 5 5 4 5 7 8 9 9 8 7 5 4 4 5 5 6 7 8 10 15 16 13 10
2 2 3 4 3 4 5 5 5 3 7 7 4 4 15 11 7 8 10 15 15 15 14 14 16 16 20 27 34 36 35 32 29 27 23 22 20 20 20 18 18 19 20 18 16 16 17 17 16 16 14 13 13 13 14 15 15 14 15 15 14 14 13 12 11 11 11 11 10 9 8 7 6 6 4 3 3 4 6 8 10 9 8 7 6 4 4 4 4 5 6 7 10 14 16 13 11
3 3 3 4 5 4 3 5 7 5 8 8 4 2 12 13 9 8 10 14 17 17 13 16 19 17 22 28 31 32 32 29 26 25 21 19 18 18 19 18 17 19 20 19 17 17 18 17 16 16 14 13 13 13 14 14 14 14 14 15 14 14 13 12 12 11 10 10 9 8 7 6 5 6 5 3 1 3 4 7 9 10 9 7 6 5 4 4 3 3 5 6 9 14 16 14 11
3 4 3 5 5 5 6 7 8 8 9 8 7 2 10 10 8 9 12 14 17 17 13 16 18 17 19 20 23 25 25 22 22 22 20 18 18 17 18 18 17 19 20 19 19 18 17 16 15 15 14 13 13 13 13 13 13 13 13 14 14 13 12 12 12 11 10 9 9 8 7 6 5 4 4 3 3 4 4 5 7 9 10 9 7 6 4 4 3 3 3 5 9 14 16 14 12
2 4 5 6 4 4 10 9 9 10 6 5 7 3 8 6 8 12 16 13 10 12 14 18 20 19 18 16 17 20 20 18 17 18 17 16 16 16 16 17 18 19 20 19 19 18 16 16 15 14 13 13 13 14 14 14 14 13 13 13 14 13 12 12 12 11 10 9 8 8 7 7 6 6 6 6 5 5 4 5 5 8 11 10 9 7 6 5 4 3 3 5 9 14 16 14 13
2 3 6 6 4 5 10 9 11 11 3 4 7 5 2 4 10 13 17 14 7 8 14 20 20 17 16 15 15 17 18 15 14 15 15 15 16 17 16 17 18 20 20 19 18 17 17 17 16 15 13 12 12 14 14 14 14 14 15 14 13 13 13 13 12 11 10 10 9 9 9 8 7 6 7 9 7 6 6 4 5 7 10 11 11 9 7 6 4 4 3 4 7 11 13 13 12
3 5 4 7 7 7 8 9 11 10 2 4 5 4 1 8 10 7 13 14 11 13 17 19 18 17 17 17 17 15 14 12 13 14 15 16 17 18 19 20 20 21 21 19 18 18 18 18 17 16 14 12 12 13 14 15 15 15 14 13 13 12 12 13 13 12 11 11 10 10 10 9 8 7 8 10 10 8 6 5 5 7 9 10 12 11 9 7 6 5 4 4 5 8 9 10 10
5 6 5 7 8 7 8 10 11 7 3 2 3 4 4 7 8 7 14 16 17 17 17 19 18 18 19 17 16 14 14 13 13 15 16 18 19 19 20 22 21 22 21 19 18 18 19 19 18 17 16 13 12 12 13 14 14 13 13 12 12 11 11 12 12 11 11 11 12 12 12 11 10 9 9 11 11 10 9 7 6 6 8 9 10 11 11 9 8 7 6 6 7 8 9 10 10
5 7 6 5 6 6 8 10 9 8 3 2 4 7 7 7 12 14 18 18 19 19 17 19 18 16 17 17 16 14 13 13 14 15 15 17 19 19 19 21 22 22 21 20 19 19 19 19 18 17 17 15 12 12 12 13 13 12 12 11 10 11 11 11 11 11 12 12 13 14 14 13 11 10 10 10 11 11 11 10 9 8 8 8 9 10 11 10 10 9 9 10 10 11 11 12 13
6 8 7 6 6 5 6 8 6 7 4 5 6 6 6 11 16 14 17 20 19 19 18 17 16 16 16 15 14 13 12 13 15 16 16 17 18 18 18 20 21 21 21 19 18 18 18 18 17 17 16 15 14 13 13 13 14 13 11 10 10 10 10 10 11 12 13 13 13 14 15 14 12 11 10 10 11 12 12 12 12 11 9 9 9 10 11 11 11 11 11 12 14 14 15 15 15
5 5 7 9 8 3 4 7 7 4 4 3 1 2 4 7 11 11 13 19 20 19 17 14 16 17 16 14 12 12 12 12 15 17 16 15 15 16 18 19 19 20 20 19 17 17 17 16 16 17 16 16 16 15 14 13 13 13 12 11 11 11 10 11 12 12 13 13 12 12 13 13 13 12 11 11 12 12 13 14 13 14 13 11 10 11 11 12 13 14 14 14 14 14 15 16 16
6 6 7 10 7 2 4 6 7 2 1 2 3 2 4 6 11 15 15 17 20 20 17 14 16 17 16 14 11 10 10 12 14 15 14 13 14 16 18 19 20 20 20 19 17 16 16 15 15 16 16 16 15 15 13 13 13 12 12 12 12 12 11 10 11 12 12 12 11 10 10 11 12 12 12 12 13 13 14 14 14 15 15 14 12 12 12 13 14 15 16 16 15 15 15 16 16
6 6 5 8 3 2 5 6 5 3 2 2 3 2 5 4 14 20 18 17 20 22 18 16 17 15 14 12 10 8 9 12 12 12 12 13 14 16 17 18 19 20 19 19 18 16 15 15 15 15 14 14 14 13 12 12 13 11 9 9 9 11 11 10 10 10 10 10 11 11 10 9 10 11 12 13 13 14 14 14 15 15 15 15 15 14 14 15 16 17 17 18 18 18 19 19 18
6 4 4 5 4 4 6 5 4 4 2 3 6 2 6 2 14 18 18 20 21 20 17 15 15 13 11 10 9 8 9 11 10 10 12 13 14 15 15 15 16 18 18 18 18 17 16 15 15 15 14 13 13 12 12 12 11 10 8 7 7 8 9 10 10 10 10 10 10 11 10 10 10 11 12 12 13 13 14 14 14 14 14 15 16 16 15 15 17 18 18 18 19 20 22 22 21
5 4 3 2 2 4 7 3 6 5 1 5 8 2 5 2 9 10 14 21 22 19 15 15 13 11 10 9 10 9 9 11 11 12 13 13 13 14 14 13 13 15 17 17 17 17 16 15 15 14 13 12 11 11 12 12 11 9 9 8 7 7 8 9 10 10 10 10 10 11 10 10 10 11 11 11 12 13 13 14 13 13 13 14 16 16 15 15 15 17 17 18 19 20 22 23 22
1 2 4 0 3 4 8 4 7 7 1 6 9 2 4 5 10 7 10 16 20 19 15 14 12 11 11 9 9 9 8 11 14 14 13 14 14 14 15 14 14 14 15 15 15 15 13 13 13 12 11 10 10 11 12 11 10 9 9 8 7 8 8 9 10 10 10 11 11 11 10 11 10 10 10 11 12 13 13 14 13 13 13 14 15 16 17 17 16 16 16 17 18 19 21 22 22
2 2 3 2 4 2 5 6 5 8 3 4 6 3 2 8 15 14 14 16 20 20 15 14 12 10 12 10 9 8 8 9 12 14 14 14 16 16 15 16 16 14 13 13 13 12 11 11 11 10 9 8 9 11 12 11 10 9 9 8 8 9 8 8 9 10 11 12 12 11 11 11 11 10 10 11 13 14 14 14 14 13 13 14 15 16 16 17 16 16 17 17 17 17 17 19 20
4 1 3 2 3 3 2 5 4 6 5 3 4 5 6 10 16 16 17 19 19 18 14 13 11 10 11 10 10 8 8 8 8 13 15 12 14 18 18 17 17 15 13 12 11 11 11 11 10 8 7 8 9 10 10 9 9 8 8 8 9 10 10 10 9 10 12 13 13 12 12 11 11 12 12 13 14 15 16 15 15 13 13 14 15 15 15 15 16 17 18 18 17 17 17 18 18
3 3 3 2 2 3 4 4 3 5 6 4 7 10 11 13 10 8 12 17 18 16 13 12 12 14 12 10 10 7 8 8 8 14 18 14 13 18 21 21 19 16 14 12 11 11 11 11 10 9 7 7 8 7 7 6 6 6 7 7 8 9 10 10 10 11 12 12 13 12 12 13 13 14 14 14 15 16 16 16 16 14 14 14 14 14 14 15 17 18 19 20 19 19 20 20 19
6 5 5 4 3 3 5 5 4 6 5 6 10 10 11 10 6 7 8 12 16 14 13 12 11 12 10 9 8 8 8 7 10 19 22 20 18 19 21 22 22 19 17 13 12 11 11 11 10 9 7 5 4 4 4 4 5 6 6 7 8 8 9 10 11 12 11 9 10 11 12 13 14 14 15 16 17 16 16 17 17 16 16 14 13 14 17 18 19 19 19 20 21 21 21 21 20
5 4 3 6 6 4 5 5 6 6 6 6 10 12 12 11 7 8 8 10 15 15 15 13 10 10 9 10 9 9 8 6 13 21 22 21 21 21 20 20 23 21 19 17 15 15 14 13 13 12 10 7 5 3 1 1 3 5 6 7 9 9 9 11 11 10 9 8 8 9 10 11 12 13 14 16 16 16 17 18 18 19 18 15 15 17 20 21 20 20 19 20 20 21 22 21 19
5 3 3 5 5 6 6 6 7 5 8 4 11 15 12 12 10 7 7 11 13 13 15 13 11 11 9 10 10 9 6 5 13 16 18 20 20 20 20 20 22 20 19 19 18 18 17 16 16 15 13 11 11 8 6 4 4 5 6 7 9 10 11 12 12 11 11 11 10 11 11 11 11 12 12 13 15 16 17 19 20 20 18 15 17 20 21 21 20 20 20 20 21 20 20 20 18
5 3 3 4 3 2 4 6 6 7 8 5 12 16 9 10 11 7 6 7 8 9 10 11 11 11 9 9 9 8 6 7 10 11 14 17 17 20 20 20 20 18 19 20 19 19 19 18 18 16 15 13 13 11 9 8 6 6 7 8 9 10 10 12 13 12 12 13 12 11 12 12 11 12 12 12 14 15 16 18 19 19 17 16 18 20 20 20 20 21 22 22 22 21 20 21 20
5 4 4 5 3 3 2 5 3 7 8 9 14 13 6 7 9 8 7 6 9 10 11 11 10 10 10 9 8 7 7 9 10 9 9 13 17 18 19 20 19 19 21 20 19 19 18 18 17 16 15 14 13 11 9 9 7 5 4 6 7 9 10 11 11 10 11 12 10 10 11 11 12 12 13 13 14 14 14 15 16 17 17 17 18 19 20 20 20 22 22 22 22 21 20 21 21
5 6 7 6 4 6 4 2 6 11 8 13 17 10 2 4 6 6 5 6 9 10 11 11 9 9 10 9 9 7 6 8 9 8 6 11 15 16 18 20 19 20 22 21 20 19 18 17 16 15 14 13 12 11 10 8 7 7 7 6 6 8 10 12 12 13 14 14 13 13 13 12 13 13 14 15 15 14 13 13 14 16 18 19 18 19 21 21 21 22 23 23 23 23 21 21 20
5 7 10 9 6 6 5 2 8 8 4 7 11 7 2 1 6 6 5 6 8 7 9 10 8 8 8 9 8 7 7 7 7 7 7 10 13 15 19 19 18 20 19 20 20 19 19 16 14 13 13 12 11 11 10 9 9 10 10 10 11 11 11 12 12 13 15 16 17 16 14 14 13 13 13 14 14 13 13 12 13 15 18 20 20 20 21 22 23 24 24 24 24 25 24 21 20
5 6 8 9 7 6 7 4 7 5 6 8 5 6 3 3 5 6 7 7 7 7 8 9 7 6 7 8 7 7 7 6 6 7 8 9 11 16 18 16 17 18 17 18 19 18 18 17 15 13 12 11 11 11 11 11 11 12 12 12 13 13 13 12 11 11 11 13 15 15 14 15 14 14 13 13 13 13 12 12 13 16 17 18 19 20 21 22 23 23 23 24 24 25 24 22 23
6 5 7 7 7 8 9 7 7 5 7 6 2 5 5 4 6 8 8 9 7 7 7 7 7 7 7 8 7 7 6 5 5 6 7 9 12 16 16 15 16 16 16 17 17 17 17 16 15 13 12 11 11 10 11 12 13 13 13 13 13 13 12 12 12 12 12 12 12 13 13 14 15 15 16 15 15 14 14 13 13 14 16 16 17 19 20 21 22 22 21 22 23 24 23 23 25
7 5 6 7 7 9 10 7 6 4 6 5 1 6 5 2 6 8 7 8 7 7 9 8 8 8 8 8 7 7 6 5 5 6 7 10 13 15 16 17 17 16 16 16 15 16 17 16 13 11 11 11 10 10 10 11 12 13 13 13 14 13 12 12 13 13 12 12 12 12 12 13 13 15 17 18 17 17 16 16 15 14 15 14 15 16 18 19 20 21 21 21 22 23 24 24 25
7 5 5 3 5 6 7 5 5 4 6 8 9 8 5 2 6 9 7 8 9 8 8 9 9 10 9 9 8 7 6 5 5 7 9 13 14 15 18 19 17 15 14 13 13 13 14 15 13 12 11 9 9 9 9 11 12 13 14 14 15 14 14 13 13 14 14 13 13 13 13 12 12 12 14 15 16 16 15 15 16 15 15 14 14 16 17 18 19 20 22 23 24 25 25 25 26
5 4 6 2 2 1 1 1 5 5 4 8 12 9 6 4 6 10 6 5 11 11 9 10 11 11 11 9 8 7 6 5 5 7 10 14 14 15 19 19 17 16 13 11 12 12 13 14 12 12 11 10 9 7 7 8 11 13 14 15 16 16 15 15 15 16 16 15 15 15 14 13 12 12 12 12 14 14 15 15 15 15 14 15 16 17 17 18 19 19 21 22 23 24 25 25 27
6 4 4 2 2 3 1 3 3 5 5 7 8 5 4 5 6 8 5 4 12 13 10 14 14 13 11 8 8 7 6 6 6 7 8 12 12 13 17 18 16 16 14 12 12 11 12 12 11 10 10 11 11 8 6 6 8 11 13 14 16 16 17 16 16 17 16 16 16 15 15 14 14 14 13 14 15 16 16 16 16 16 15 15 16 17 17 18 18 19 20 21 22 23 25 26 27
7 4 3 4 1 2 2 1 2 4 5 5 8 4 0 2 2 3 4 7 11 9 9 13 14 14 11 9 9 7 6 6 6 6 6 8 9 11 13 15 16 16 14 11 10 9 10 11 10 10 10 11 12 12 12 10 9 9 10 12 14 15 16 17 17 17 17 16 16 15 14 15 15 16 16 17 18 18 17 17 17 17 16 16 16 17 18 19 19 19 21 22 23 24 25 27 28
7 5 5 5 3 3 4 3 1 3 3 1 6 6 1 1 1 3 3 7 9 9 9 10 11 11 10 9 9 7 7 6 5 6 6 6 9 10 12 14 16 15 11 9 10 11 12 10 11 11 10 11 13 15 16 16 15 12 10 11 14 15 16 17 16 16 17 17 17 16 15 14 15 16 16 17 18 18 17 17 17 16 16 17 17 18 19 19 20 20 22 23 24 25 25 26 28
6 5 6 5 5 5 4 3 3 4 2 4 2 3 1 0 2 4 7 8 9 11 10 9 9 8 8 8 8 8 7 6 5 5 6 7 10 11 12 14 16 13 8 7 10 12 12 11 13 13 12 13 14 16 18 18 18 16 14 12 14 15 15 15 15 15 17 18 18 18 16 15 16 16 16 17 18 19 18 17 17 18 19 19 19 19 20 20 21 21 23 25 25 25 25 26 27
4 4 5 4 6 5 2 4 5 5 4 3 3 1 1 2 5 7 9 9 10 11 10 10 9 8 8 8 7 7 7 5 5 5 6 8 11 13 14 15 15 12 8 8 12 13 12 12 15 15 15 15 16 17 18 18 18 18 18 16 15 15 15 16 16 16 17 18 19 19 18 17 17 17 18 18 19 20 20 21 21 22 23 23 22 20 20 21 22 22 23 25 25 25 25 26 28
3 3 4 5 6 7 4 2 2 4 5 1 1 2 2 3 4 6 10 11 10 11 11 11 10 10 9 7 7 7 6 5 5 5 5 7 10 13 15 14 12 10 9 11 15 15 14 15 17 17 17 16 16 17 18 18 18 17 18 18 17 16 16 17 18 18 18 18 18 18 18 18 17 18 19 19 19 20 22 24 25 25 25 24 22 21 21 21 22 22 23 24 25 25 24 26 28
5 4 6 3 4 3 3 3 0 3 4 1 1 4 5 4 2 6 11 12 11 11 11 10 10 10 9 7 7 7 6 6 5 6 6 9 11 13 15 15 14 14 14 15 15 14 15 17 20 21 20 18 17 17 18 18 17 16 17 19 19 18 17 18 19 20 21 21 21 20 19 19 18 18 19 20 20 21 22 24 26 26 25 24 23 23 21 20 20 20 21 23 24 24 24 26 27
5 6 4 3 4 1 1 3 3 2 3 1 3 6 6 4 4 9 13 13 14 12 11 10 10 10 9 8 8 7 7 6 5 6 7 10 13 15 17 18 18 19 18 17 16 16 17 20 22 23 22 21 20 19 19 19 18 18 18 20 21 20 19 19 19 20 23 25 25 24 22 20 20 19 20 20 20 21 20 21 26 27 25 25 25 25 23 22 21 19 19 20 21 23 23 25 26
2 3 1 1 4 4 3 4 4 4 3 2 4 6 4 3 7 12 13 15 16 14 11 11 10 10 9 8 8 7 7 5 5 6 6 10 14 15 17 19 18 18 18 18 19 19 20 21 22 22 22 23 23 22 22 21 19 19 19 21 22 22 21 20 20 21 23 25 26 27 25 23 22 21 20 21 20 20 18 19 25 29 27 27 27 27 27 25 24 22 20 19 19 20 21 23 23
2 3 2 1 2 1 2 2 2 5 5 3 4 4 4 2 6 13 15 15 15 14 12 11 10 10 9 8 7 7 7 6 6 5 6 10 13 15 17 19 18 18 18 19 19 19 21 22 22 23 23 23 23 23 24 23 22 22 22 22 23 23 23 22 21 21 22 25 26 27 26 26 26 25 25 24 22 20 17 18 25 30 29 29 30 30 30 29 28 26 24 22 20 19 20 21 21
6 4 4 4 3 3 3 2 1 3 4 4 5 4 4 2 3 9 13 12 12 12 12 11 10 11 10 8 8 7 7 7 6 5 7 10 13 15 17 18 18 18 19 20 20 20 22 23 23 23 22 22 23 23 24 24 24 24 24 23 23 23 23 23 23 22 22 24 26 27 27 27 28 27 28 30 27 22 18 17 26 33 32 31 32 32 32 31 30 29 26 24 24 22 21 21 20
Wind_Direction
300 300 305 324 327 336 343 75 57 323 94 209 259 270 265 230 254 276 280 284 124 307 305 73 60 91 104 106 112 84 43 44 135 125 150 128 126 136 141 138 137 135 136 140 143 145 145 144 143 142 145 148 150 145 138 131 125 121 112 113 118 120 121 116 113 110 107 106 105 104 102 102 102 102 101 101 100 99 99 98 98 97 98 97 96 95 95 94 94 95 96 96 108 117 113 107 101
304 301 301 317 330 351 301 80 103 303 78 274 267 209 267 276 277 268 237 133 115 139 95 87 84 89 104 117 107 74 48 36 85 94 105 115 114 121 130 136 138 136 138 142 144 146 146 145 143 143 146 148 150 145 139 132 129 125 116 114 118 121 120 116 112 109 106 107 106 104 104 104 104 105 104 103 102 101 99 98 96 94 94 94 93 92 93 93 92 93 95 99 112 120 113 105 100
308 312 315 326 342 51 12 37 113 158 133 220 266 236 275 294 281 271 155 120 132 139 107 100 91 83 94 86 46 64 80 58 86 92 108 117 113 119 130 135 138 137 140 144 145 146 146 145 144 144 146 148 148 145 140 135 133 128 120 116 118 121 120 116 114 111 107 107 106 106 106 106 107 107 107 107 105 103 100 98 95 94 91 90 89 87 88 89 92 94 98 106 116 123 118 110 105
313 320 335 10 23 29 54 53 156 139 159 212 259 254 248 252 277 348 119 130 146 143 116 107 76 22 67 82 67 73 96 95 96 103 112 121 128 134 135 137 139 139 142 145 146 145 144 145 145 145 146 149 148 146 142 138 137 132 123 119 120 119 119 117 116 114 110 109 107 108 109 109 110 109 110 109 108 105 102 100 98 97 95 93 92 91 91 90 92 96 102 110 118 126 129 125 118
318 328 338 58 76 12 96 115 170 145 190 200 223 257 239 224 270 40 112 132 144 128 108 105 87 40 61 79 76 81 104 106 96 101 103 121 134 136 137 140 142 141 144 146 146 144 143 145 145 146 147 149 150 148 145 141 141 135 127 125 124 120 119 119 117 115 114 113 111 110 111 112 113 114 115 113 112 109 106 105 102 100 99 96 93 95 96 94 95 96 102 105 112 124 137 140 135
325 354 30 95 126 205 123 215 228 213 224 192 201 262 271 278 288 67 100 91 66 96 91 86 103 97 67 52 40 69 114 111 97 105 115 129 136 136 138 141 143 143 144 146 147 144 144 147 147 147 149 151 152 150 147 143 142 139 132 129 127 122 120 120 119 118 118 119 117 115 114 115 117 118 119 116 113 108 105 100 97 98 101 98 92 92 90 91 94 101 105 97 98 111 129 140 142
339 5 54 67 327 23 118 215 227 241 241 196 215 284 293 290 278 138 109 95 66 74 86 97 114 99 68 65 50 58 91 110 112 122 129 133 136 135 138 140 142 143 146 148 147 145 146 149 148 149 151 152 153 151 147 143 143 140 134 131 129 125 121 121 123 124 123 124 123 121 120 120 120 120 118 115 112 108 102 91 85 90 98 101 100 97 91 90 89 97 103 93 93 103 123 135 141
1 6 89 87 3 351 131 237 236 227 242 218 248 283 274 274 274 203 155 124 119 100 98 120 109 86 55 73 76 69 88 108 120 128 129 132 138 139 140 139 142 147 150 150 147 146 148 150 149 150 151 152 153 150 145 142 143 140 135 133 131 127 124 126 130 131 129 129 128 127 128 124 122 122 118 115 111 107 98 88 85 87 93 100 102 95 87 83 78 83 90 95 106 119 130 137 140
58 117 18 86 113 300 248 258 252 238 261 272 265 263 262 268 276 216 167 120 124 111 108 145 100 95 95 80 87 86 96 114 123 127 130 136 143 143 146 145 144 148 150 148 146 147 149 150 149 149 149 149 149 145 141 141 143 140 136 135 135 131 131 135 137 139 139 136 131 129 131 129 127 125 123 119 113 106 97 90 91 95 101 104 97 87 80 75 71 74 87 104 123 134 139 141 141
58 121 83 108 117 254 259 259 256 268 270 263 255 253 263 266 265 244 136 119 125 105 99 99 89 106 114 91 91 103 116 126 126 126 134 140 144 148 151 147 143 144 144 144 145 147 148 148 147 146 146 144 142 139 139 141 142 142 140 141 141 139 139 141 141 142 144 142 134 131 132 133 133 131 129 125 114 104 94 89 94 101 107 106 96 86 77 69 66 71 92 118 136 143 146 146 142
26 323 134 140 126 232 245 264 270 279 276 273 259 246 251 254 257 244 114 118 123 117 120 93 89 108 103 94 88 115 126 126 121 126 139 146 150 151 144 138 141 142 141 143 145 146 144 143 143 142 143 140 137 136 139 141 142 144 146 146 145 146 146 146 145 146 148 146 139 136 137 136 136 137 137 131 118 104 91 88 101 107 110 109 100 88 77 66 60 68 93 126 144 149 152 151 141
66 301 91 133 214 219 227 251 273 276 280 277 261 254 242 242 239 169 126 129 132 128 139 109 120 120 98 101 108 113 115 110 115 127 144 152 147 139 133 134 140 142 141 142 143 144 142 140 139 140 142 140 136 136 140 141 143 145 146 148 148 151 154 154 152 152 154 151 145 144 146 142 142 147 145 137 126 110 96 100 120 118 117 120 109 92 77 66 56 63 93 132 150 155 157 152 142
136 218 107 154 211 200 253 255 270 283 285 261 247 257 230 219 215 159 131 134 140 126 109 126 138 119 102 119 115 111 102 107 121 134 149 147 131 125 128 133 138 144 143 142 143 142 142 139 139 140 139 136 135 136 139 141 144 145 148 150 151 156 160 160 159 158 159 156 153 155 156 155 155 161 162 158 149 131 115 123 141 135 129 130 119 104 83 70 59 63 93 135 154 159 162 154 145
172 200 127 223 250 199 270 267 281 293 281 269 258 256 220 191 166 129 123 116 86 94 110 126 125 102 113 130 114 120 103 116 130 141 146 133 120 119 124 133 138 140 140 142 142 141 141 139 139 138 137 137 137 138 139 143 145 148 152 153 153 156 161 165 166 163 161 160 161 166 167 170 175 181 186 184 174 157 142 149 156 150 141 133 122 112 97 79 66 67 90 131 158 165 165 158 149
180 206 123 217 297 307 260 240 274 279 279 280 280 268 8 43 107 114 122 112 73 101 116 129 119 102 144 153 131 137 117 125 136 141 135 120 115 115 121 131 132 134 138 141 141 143 144 140 139 140 142 142 140 140 142 144 146 151 153 151 148 149 154 159 164 162 159 161 164 170 173 179 189 197 200 196 184 168 158 168 168 160 149 137 127 111 100 88 73 72 90 124 159 169 168 161 151
180 173 100 239 259 275 253 239 255 236 266 277 273 230 62 36 76 100 119 117 109 116 109 164 156 115 150 142 122 124 124 131 137 136 126 113 111 112 120 126 127 132 137 141 142 146 144 141 143 145 147 146 145 143 144 145 144 149 151 149 146 144 143 139 146 156 161 165 166 170 176 180 189 203 209 205 191 173 163 174 177 166 155 143 133 112 95 87 79 77 90 119 155 171 171 162 152
193 167 194 247 241 247 241 236 240 230 272 282 290 110 98 65 60 77 82 97 106 96 70 60 71 104 123 116 116 122 127 133 136 130 116 109 111 111 117 121 125 131 135 139 142 144 143 143 144 146 149 150 149 146 148 149 146 151 152 150 149 145 141 139 145 153 162 167 169 173 176 177 180 193 205 200 194 182 168 173 182 174 161 152 139 122 101 87 81 79 92 117 150 169 170 163 154
183 171 204 226 227 232 207 217 252 285 290 289 296 115 112 107 96 91 76 80 90 84 76 81 83 92 103 109 117 123 129 134 137 128 112 111 113 113 121 125 126 129 135 141 142 143 144 143 143 145 148 151 153 150 153 155 155 158 157 157 157 152 149 155 159 161 169 170 174 179 177 177 174 172 166 159 178 187 173 174 185 183 168 161 152 138 117 98 85 82 95 119 148 165 170 165 155
171 173 202 219 216 239 234 252 277 293 289 294 289 148 120 127 124 109 99 96 96 88 86 95 97 98 102 112 120 125 131 134 139 130 120 123 122 125 133 135 132 130 133 140 145 148 147 144 144 146 146 151 156 156 157 158 160 162 163 164 164 162 159 164 170 172 178 180 185 188 184 187 180 171 150 125 156 200 193 184 188 190 183 174 166 157 138 119 106 97 101 122 149 163 168 165 155
193 183 214 242 231 271 283 268 277 277 280 305 298 165 130 144 128 112 114 108 106 109 117 114 112 117 116 121 125 126 127 128 133 127 123 128 128 135 142 144 140 131 131 139 149 152 151 149 149 151 150 153 157 160 161 159 161 166 169 169 169 170 169 173 179 181 183 188 194 196 198 205 211 205 183 169 182 198 211 203 196 197 197 193 185 177 164 147 133 135 122 129 149 159 163 161 155
215 179 198 236 238 286 280 268 278 274 263 314 312 89 118 137 117 123 120 105 104 124 135 128 126 129 125 124 122 122 118 119 125 119 117 121 126 134 144 148 142 136 136 141 149 155 159 160 160 160 158 158 161 162 161 160 162 170 175 176 177 178 181 186 190 191 189 194 202 206 208 214 227 235 229 220 203 189 199 212 211 206 205 206 203 194 186 179 162 170 167 148 153 159 163 163 159
259 229 205 221 234 265 274 278 286 281 265 6 350 34 88 114 118 134 129 123 135 136 130 125 126 127 122 119 116 117 116 119 123 118 119 124 130 135 144 151 144 141 143 144 149 156 164 168 168 166 166 164 166 165 161 162 166 175 180 181 183 183 189 196 199 201 199 202 212 220 220 220 229 244 242 236 231 207 194 200 219 221 215 212 212 209 202 201 193 193 207 192 175 171 173 175 176
237 267 232 223 231 241 277 295 285 283 9 29 344 333 351 107 119 132 116 119 129 128 125 120 117 112 108 109 111 114 116 122 127 129 138 141 141 141 147 153 150 147 147 149 153 159 167 172 174 172 171 168 167 170 166 165 170 177 181 183 186 188 193 199 202 204 208 212 220 232 236 233 233 243 239 235 242 237 222 210 211 230 231 221 214 211 210 215 216 212 221 229 221 208 203 200 204
209 254 254 234 233 228 265 276 271 288 28 3 305 335 358 104 115 97 97 109 118 121 121 113 104 98 99 102 106 111 116 121 128 139 148 149 149 149 150 152 153 152 149 152 160 166 171 175 179 175 174 174 173 176 175 175 179 180 184 187 188 193 200 205 207 210 219 226 230 238 244 242 236 239 241 239 243 248 249 242 226 226 235 234 224 215 212 216 224 227 235 249 250 242 240 241 248
209 231 247 242 239 222 250 265 278 310 350 29 9 352 349 96 108 103 109 116 121 122 116 105 97 93 96 103 107 110 114 119 128 139 145 146 148 147 147 150 153 154 153 155 164 171 174 178 182 179 178 182 185 188 188 189 190 190 192 194 195 202 209 214 219 223 231 238 240 242 243 243 238 238 246 246 245 250 255 257 253 242 236 235 233 228 222 220 226 234 247 262 264 255 255 261 266
213 214 232 238 243 220 237 261 279 298 314 43 22 346 16 89 101 104 120 124 124 120 110 102 99 98 101 107 111 115 122 129 137 140 142 142 144 143 144 150 153 154 155 158 166 173 176 178 181 183 184 190 196 200 203 202 201 202 201 202 211 218 223 226 228 231 235 240 246 247 243 242 243 244 248 249 247 251 256 259 261 260 254 237 230 233 233 232 233 236 247 265 270 262 263 268 272
245 239 242 237 243 221 199 249 258 260 299 16 353 290 32 83 105 108 130 130 125 115 105 103 104 106 111 113 116 123 128 132 135 133 131 136 141 142 145 150 150 151 157 161 165 171 176 178 178 182 186 192 200 206 212 213 211 211 209 212 225 232 233 232 231 236 241 244 250 250 247 248 252 253 254 255 253 251 253 258 262 265 263 252 241 237 236 238 240 243 247 260 268 263 264 265 267
269 255 261 255 251 250 190 246 264 212 295 285 200 235 30 77 122 135 145 134 123 115 106 107 110 112 117 118 120 122 116 115 121 123 127 139 149 151 152 154 151 152 158 158 157 161 169 173 173 177 184 190 199 206 212 218 218 218 218 219 229 237 238 237 238 244 250 250 250 251 254 259 260 258 259 261 260 257 254 259 263 265 266 263 257 251 249 247 247 250 252 257 263 263 263 261 264
268 224 241 275 314 332 218 223 253 175 200 210 150 296 342 76 139 145 142 130 121 116 114 116 115 116 118 119 119 112 105 105 109 116 127 143 154 156 157 159 156 157 159 156 153 155 160 166 170 175 181 187 192 195 199 212 220 223 225 222 229 241 244 249 252 253 254 253 254 256 257 259 258 256 258 262 263 261 259 261 265 268 269 266 263 261 258 255 254 255 256 257 260 264 266 265 267
294 243 195 262 8 337 251 208 197 173 192 139 116 242 298 142 148 142 131 127 120 117 120 121 119 118 119 117 113 108 107 109 112 117 124 135 149 152 151 156 156 155 155 154 154 157 161 165 169 171 174 179 179 181 188 202 218 225 228 228 231 238 245 254 259 258 254 253 255 256 253 253 255 255 258 262 264 264 263 264 268 271 269 265 265 265 261 258 258 259 262 262 262 265 267 268 269
303 282 209 197 141 270 275 231 169 177 226 117 113 191 264 121 123 120 123 126 119 119 123 119 119 117 115 111 110 109 109 118 119 113 110 115 131 142 143 147 152 151 152 154 155 159 165 166 167 168 171 175 171 174 184 196 216 228 233 238 239 241 246 253 257 258 254 253 255 252 252 255 259 262 263 265 266 267 268 268 272 275 272 267 264 265 263 261 263 265 268 268 268 268 268 269 269
319 254 270 284 159 253 298 280 172 177 225 121 121 175 242 113 109 112 121 122 116 119 121 115 113 108 110 110 109 111 108 114 109 102 102 100 108 131 142 146 148 151 153 154 154 157 163 166 168 167 169 180 178 175 184 199 216 228 236 241 241 238 239 246 253 259 258 258 257 251 252 258 262 268 271 274 276 276 275 274 278 280 277 273 270 269 267 266 271 276 277 274 271 268 267 268 267
346 144 226 220 174 225 305 298 212 183 159 128 146 172 282 111 131 145 135 124 117 120 120 111 106 102 109 112 111 115 111 109 101 97 99 92 91 105 126 141 143 144 147 147 148 153 157 163 169 164 166 182 184 178 184 203 216 226 241 251 258 251 247 251 255 266 272 269 264 256 257 264 270 277 280 284 287 285 284 284 286 286 282 279 279 278 274 272 277 282 284 281 278 273 266 264 263
312 75 182 215 187 169 234 297 279 184 148 140 130 76 61 115 141 147 136 129 120 120 118 108 110 110 112 113 110 112 110 109 104 100 102 94 85 87 100 122 134 134 134 133 134 139 144 152 157 149 153 170 177 177 181 198 214 226 243 259 268 267 269 269 266 277 283 279 272 268 268 270 273 278 280 284 288 288 287 289 291 292 290 287 285 285 283 278 279 280 280 279 279 277 271 266 264
226 215 172 229 214 166 200 248 262 172 152 122 86 65 86 120 133 123 123 124 115 115 115 110 115 115 115 111 103 97 94 96 93 96 101 101 93 88 92 105 118 120 119 121 121 123 126 131 137 132 136 151 163 170 171 191 221 237 247 258 264 269 277 277 280 288 289 284 280 278 273 269 270 274 278 280 282 283 286 290 292 293 293 292 290 290 289 284 281 278 274 273 272 273 273 270 266
193 209 174 182 202 226 220 238 240 166 131 83 94 95 99 98 67 65 89 105 106 110 112 113 116 113 109 97 90 81 77 78 80 84 90 92 91 93 92 95 103 105 106 109 108 106 102 105 113 110 114 127 141 162 173 201 245 264 266 274 276 277 283 285 290 292 288 283 283 286 280 273 273 276 281 282 281 281 285 289 290 290 290 289 289 287 285 283 280 279 276 273 272 271 272 269 267
206 228 209 197 191 238 236 240 249 167 113 70 99 102 96 86 63 76 93 99 106 115 117 114 109 104 99 92 90 82 74 76 78 77 82 85 86 91 91 89 93 93 96 98 90 85 83 84 89 87 84 83 81 81 74 265 286 300 298 298 297 297 298 298 303 303 300 295 287 290 288 277 274 277 282 284 284 285 286 287 286 285 285 285 284 281 278 278 278 281 282 279 275 273 272 272 271
238 240 250 232 199 233 237 228 242 137 99 93 99 89 85 94 89 81 95 104 108 117 119 113 106 102 98 97 93 86 82 80 76 70 73 78 80 88 87 83 87 83 83 88 82 79 80 80 80 76 73 71 66 57 41 19 337 324 317 314 313 311 309 309 312 316 321 318 309 306 300 285 277 282 287 286 285 285 287 286 283 282 283 282 277 272 271 274 276 278 279 277 275 274 275 278 274
239 228 234 256 228 243 271 248 222 116 102 132 105 91 82 84 86 68 60 90 96 92 95 99 105 104 100 101 97 94 90 76 75 68 68 75 77 82 83 77 78 76 75 80 79 78 79 78 76 72 68 64 59 54 47 35 11 335 317 320 328 327 325 323 318 317 321 318 314 317 317 307 298 300 302 300 296 291 287 284 283 283 280 273 269 269 269 271 272 272 272 273 274 273 272 274 271
229 211 214 241 205 146 283 268 194 95 106 134 107 94 87 75 76 65 55 76 84 75 72 77 88 93 95 97 93 95 93 82 81 74 66 74 73 72 76 74 71 70 70 71 73 73 72 71 70 67 63 57 53 51 49 47 39 21 350 331 335 339 340 339 333 328 330 327 324 329 333 329 321 320 320 318 315 308 297 291 289 286 280 274 274 277 278 275 273 273 272 271 271 268 266 267 268
234 213 213 220 190 165 208 248 85 76 96 121 103 82 45 91 105 96 86 90 88 84 79 77 77 82 86 85 84 84 84 85 86 85 74 74 77 74 73 74 70 68 66 65 67 69 68 68 66 63 59 52 47 45 43 47 53 55 59 52 24 10 5 2 355 349 351 352 346 338 336 334 326 324 327 329 330 326 315 305 294 285 283 283 283 281 280 280 278 274 273 271 268 265 263 265 265
255 231 217 212 190 174 203 163 94 91 133 152 117 96 317 192 134 135 134 111 95 95 92 94 95 91 90 89 89 85 76 79 84 91 89 82 87 84 74 72 72 69 67 67 68 69 69 68 66 63 58 51 44 42 40 45 52 54 60 62 53 43 35 25 13 3 360 1 360 350 343 341 332 325 330 335 338 337 328 314 297 287 284 283 284 283 281 281 278 275 274 273 271 267 262 261 262
248 235 207 203 186 185 215 181 129 132 180 205 184 128 168 212 168 164 151 125 112 108 104 112 114 102 103 102 99 97 86 85 91 92 92 91 90 85 78 73 73 71 70 72 71 69 70 69 67 62 57 54 49 46 44 48 53 55 61 64 60 57 52 43 39 36 25 20 18 10 360 355 345 340 347 348 345 345 335 317 301 295 292 289 290 288 284 283 281 280 280 277 276 274 266 261 262
236 226 173 182 182 194 227 202 166 174 169 192 248 106 134 189 181 176 150 126 127 128 124 128 124 111 107 106 103 102 97 98 102 95 92 93 87 86 87 80 74 71 70 71 67 66 66 64 59 54 51 50 47 48 49 51 56 57 59 60 58 57 52 47 47 45 41 40 39 32 23 14 1 355 0 1 358 356 347 335 322 307 302 301 297 290 287 288 286 283 283 281 276 275 272 266 264
240 224 170 172 176 197 225 205 171 175 166 178 195 115 120 169 168 168 156 143 156 158 151 145 133 125 115 111 108 101 102 104 101 101 97 92 87 89 92 85 77 72 68 67 64 65 65 60 56 49 43 40 39 45 47 48 54 57 57 54 52 49 44 46 45 39 36 35 33 33 33 29 19 8 4 4 3 358 350 345 340 325 313 309 303 297 296 293 287 283 282 281 276 274 275 270 266
239 230 216 169 153 202 221 185 145 148 174 188 191 164 126 137 171 169 171 177 179 172 160 154 141 136 129 120 116 109 108 107 98 102 101 98 96 95 93 88 82 76 70 65 63 65 66 64 63 54 43 36 35 40 41 40 42 49 53 50 46 43 38 39 39 33 29 24 21 22 24 25 22 14 8 6 6 4 358 350 342 329 318 312 309 308 304 298 292 287 283 281 280 278 277 272 268
232 244 240 187 99 255 251 102 114 135 201 206 197 187 142 144 192 184 186 192 176 167 156 155 146 136 133 125 122 121 117 116 105 102 100 99 100 97 94 91 84 78 75 74 74 72 68 68 69 64 56 49 40 29 27 30 34 41 47 48 46 42 39 36 33 29 23 18 16 15 16 14 11 10 7 6 7 7 7 3 353 339 326 318 316 314 308 302 296 291 287 283 282 281 279 274 270
222 242 210 165 325 309 23 17 94 148 225 227 197 193 156 169 204 201 208 175 163 165 155 152 147 137 136 130 128 127 121 119 109 100 99 99 99 96 95 94 88 81 78 80 79 68 64 71 74 70 68 64 56 48 44 36 28 31 37 43 44 43 41 37 34 29 24 21 17 14 11 6 3 4 3 3 3 2 3 3 1 354 344 334 327 322 316 310 304 297 292 289 288 286 281 274 268
209 221 166 143 271 252 192 229 173 187 240 220 174 162 204 195 209 233 203 151 151 156 144 144 141 138 138 131 129 128 120 119 110 103 101 98 99 97 98 99 93 83 77 74 65 58 68 76 72 70 77 75 67 65 62 52 37 28 31 38 40 41 40 37 33 29 24 22 19 16 13 8 6 6 4 3 2 2 3 1 359 357 352 345 337 329 323 319 314 304 296 293 293 292 287 278 270
196 198 164 152 153 170 210 221 170 202 253 261 164 165 243 271 43 24 106 128 131 127 127 133 132 133 135 131 129 125 116 112 104 105 105 101 103 99 99 100 91 81 76 69 60 72 90 85 66 72 86 83 76 72 65 58 53 49 48 47 44 42 38 35 32 26 23 22 19 19 18 16 14 11 9 7 5 5 6 4 1 356 350 344 338 332 325 320 315 307 300 295 292 292 289 283 275
199 180 138 156 169 158 194 202 170 181 177 11 34 167 230 288 86 76 95 102 107 116 120 122 123 127 126 119 117 111 107 105 102 107 108 110 109 101 97 95 90 87 83 65 64 83 100 83 63 78 96 90 81 77 70 64 60 55 55 54 47 42 38 36 33 25 23 20 16 18 22 21 18 15 14 11 9 9 6 4 0 355 351 345 341 338 332 325 318 310 303 297 293 290 287 283 279
219 157 128 181 184 146 138 182 174 155 128 28 21 107 30 74 95 94 103 103 105 115 120 124 126 126 120 113 110 108 106 105 102 102 108 118 116 106 99 96 95 96 83 72 83 94 96 73 64 83 99 94 86 81 74 70 66 62 59 56 52 49 44 40 35 29 25 20 16 18 21 20 17 17 17 14 11 11 11 9 4 359 356 350 346 343 340 335 327 316 308 302 297 294 291 287 284
196 154 186 206 161 129 118 168 171 103 108 124 178 117 96 109 101 106 116 114 118 126 129 133 133 127 122 117 116 117 113 108 100 100 108 115 110 100 95 95 95 88 77 87 98 96 85 69 69 86 97 94 88 83 76 70 68 67 63 58 56 52 48 43 38 32 28 24 21 21 21 20 17 17 18 16 14 16 17 15 11 6 2 357 353 350 344 337 329 320 312 307 302 299 296 291 285
152 197 216 195 115 103 108 140 271 54 104 157 189 154 162 166 144 144 141 134 139 143 137 136 133 127 123 117 118 118 114 110 99 93 87 81 81 80 82 86 84 79 82 96 99 88 78 73 78 87 88 84 82 80 75 68 67 68 65 62 59 54 51 48 42 37 34 32 28 25 24 22 21 20 20 20 20 22 19 14 13 10 6 5 3 359 352 342 334 326 318 313 309 307 300 291 286
146 185 198 151 147 197 121 154 185 114 112 160 164 166 185 196 167 160 159 154 153 151 142 136 131 126 123 118 121 119 113 109 96 88 74 69 74 79 85 86 81 81 85 90 88 80 77 80 84 86 80 76 78 78 75 71 72 73 69 66 62 58 55 51 46 42 40 37 33 30 29 27 25 24 23 23 23 24 18 10 11 11 8 10 9 5 0 353 347 341 331 323 318 316 309 296 288
112 149 178 129 151 167 164 162 157 136 145 170 156 172 210 210 170 165 165 161 157 154 144 137 131 126 125 122 124 122 113 106 96 91 81 78 81 84 90 87 82 83 82 81 83 81 80 83 85 82 78 77 78 76 74 72 73 74 71 67 64 61 59 54 50 47 45 42 38 36 35 32 31 29 28 28 25 28 23 7 8 12 11 12 12 10 6 360 355 352 346 338 330 326 321 308 298
154 151 187 168 106 138 163 157 120 126 144 160 149 191 245 228 170 166 165 163 158 152 142 135 130 125 121 120 121 117 109 103 96 93 93 90 86 86 91 91 87 84 78 79 85 82 80 84 84 80 78 77 76 74 74 73 72 72 72 69 65 62 59 56 54 52 49 45 41 39 38 37 39 38 38 38 33 30 26 8 9 15 16 14 13 11 8 4 360 356 353 349 342 336 330 320 309
157 158 189 171 130 131 150 228 276 107 132 163 156 188 234 249 174 165 162 158 150 143 136 129 127 123 119 119 118 113 106 101 97 93 93 92 86 85 90 92 89 81 75 79 86 84 81 83 83 82 79 77 76 75 75 74 72 72 71 70 67 63 59 56 55 54 51 47 43 41 40 39 41 39 39 42 39 34 31 18 15 19 19 17 14 11 8 5 2 358 354 352 348 343 337 329 319
Height
783 784 783 783 781 781 782 782 797 801 802 814 806 800 789 776 773 773 773 767 768 766 757 754 751 753 761 771 776 776 778 779 782 790 797 796 793 795 795 796 799 799 802 804 804 806 806 807 807 808 809 810 811 812 813 814 815 815 815 816 815 815 815 816 816 816 817 817 818 818 819 820 821 822 822 823 823 824 824 824 824 824 825 825 825 825 825 825 824 825 825 825 825 825 825 825 826
783 784 782 783 781 783 786 785 804 811 811 819 805 798 785 772 774 772 770 767 769 765 756 755 756 758 761 765 766 771 782 782 778 783 790 792 794 798 798 797 798 799 801 803 803 805 806 807 808 809 810 811 812 813 814 814 815 816 816 816 816 816 816 817 817 818 818 819 819 820 820 821 822 822 823 823 824 824 825 825 825 825 826 826 826 826 826 826 826 826 826 826 827 826 826 826 827
783 783 782 783 782 783 788 789 807 816 817 819 803 792 781 776 774 767 764 763 764 758 756 757 759 764 765 770 770 775 789 786 780 782 789 793 794 799 800 799 799 800 801 802 803 804 805 807 808 810 810 812 813 814 814 815 816 816 817 817 817 817 818 818 819 819 819 820 820 821 821 822 822 823 823 824 824 825 826 826 826 826 827 827 827 827 827 827 827 827 827 828 828 828 828 828 828
783 783 782 782 785 788 792 798 806 812 817 815 801 787 778 777 769 762 761 760 758 754 755 758 765 765 765 778 777 778 788 787 784 783 789 794 794 798 799 800 800 800 801 802 803 804 806 807 809 810 811 813 813 814 815 816 816 817 817 818 818 818 819 819 820 820 821 821 821 822 822 823 823 823 824 824 825 825 826 826 827 827 827 828 827 828 828 828 828 828 828 828 829 829 829 829 829
783 783 783 783 790 792 795 802 804 808 810 803 796 782 773 770 765 763 761 759 755 754 755 758 770 768 765 775 775 782 788 786 787 784 789 796 795 797 798 799 800 800 801 802 803 805 806 807 809 811 812 813 814 815 815 816 817 817 818 818 818 819 819 820 821 821 822 822 822 823 823 823 823 824 824 824 825 825 826 827 827 827 828 828 828 828 828 828 828 828 829 829 829 829 829 829 830
782 782 782 783 788 789 798 807 805 806 797 790 790 779 770 765 764 765 761 761 757 754 754 757 769 771 774 776 774 781 782 783 788 787 789 795 797 797 797 799 799 800 801 803 804 805 806 808 809 811 812 813 814 815 816 817 817 818 818 818 819 820 820 821 822 822 822 823 823 823 823 824 824 824 825 825 825 826 827 827 827 827 828 829 829 829 828 828 828 829 829 829 830 829 829 830 830
782 784 785 787 789 790 805 811 805 804 790 783 786 777 771 764 761 765 764 764 764 759 755 761 763 771 785 781 780 781 778 781 785 790 791 794 798 797 797 798 799 800 802 803 804 805 806 808 809 810 812 813 814 815 816 817 818 818 818 819 820 820 821 822 822 823 823 824 824 824 824 824 825 825 826 826 826 826 827 827 828 828 828 829 829 829 829 829 829 829 829 829 830 829 830 830 830
783 786 787 793 798 798 806 807 801 799 787 779 779 775 769 761 759 765 765 763 768 765 762 766 759 776 793 782 789 788 780 784 785 791 792 794 797 796 797 796 798 799 802 803 804 806 806 808 809 811 812 814 815 816 817 817 818 819 819 820 820 821 822 823 823 823 824 824 824 825 825 825 826 826 826 827 826 826 827 828 828 828 828 829 829 829 829 829 829 829 829 830 830 830 830 830 831
782 786 789 796 803 804 806 804 798 792 785 779 777 773 765 758 760 762 762 762 765 767 769 767 757 778 795 785 793 790 784 789 788 792 793 795 796 794 796 795 798 799 802 804 806 807 808 810 810 812 813 814 815 816 817 817 819 819 820 820 821 822 822 823 823 824 824 824 825 825 826 826 826 827 827 827 827 827 827 828 828 829 829 829 829 829 830 829 829 830 830 830 830 830 831 831 831
784 788 791 798 804 809 809 805 799 790 783 778 775 770 762 757 758 758 760 765 764 768 772 764 761 779 790 791 796 791 789 791 790 794 794 795 795 794 797 798 801 802 805 806 808 809 810 812 813 814 815 815 816 816 817 818 819 819 820 821 822 822 822 823 823 824 824 825 826 826 826 827 827 827 828 828 828 827 828 829 828 829 830 830 830 830 830 830 830 830 830 830 830 831 831 831 832
789 789 790 801 808 811 810 805 799 790 781 776 771 764 759 753 756 759 759 766 764 768 770 763 773 783 786 795 797 792 791 792 792 794 795 794 794 796 799 802 804 804 806 807 809 811 812 814 815 816 816 816 817 817 818 818 819 820 821 821 822 823 823 823 823 824 824 825 826 827 827 827 827 828 828 828 828 828 828 829 829 829 829 830 830 831 831 830 830 830 831 831 831 832 832 832 833
794 793 793 805 808 806 804 803 797 788 781 776 771 757 752 751 755 760 760 766 766 768 765 762 775 778 788 800 796 793 792 794 794 794 795 794 796 799 801 804 805 805 807 809 811 812 814 815 816 817 817 817 817 818 818 819 820 820 821 822 822 823 823 823 824 824 825 826 826 827 827 827 828 828 828 829 828 828 828 829 829 829 829 830 831 831 831 831 831 831 831 831 832 832 832 833 833
794 794 796 804 802 799 798 799 793 789 784 774 767 752 745 749 750 754 758 765 765 769 765 760 766 770 788 800 794 794 794 796 795 795 795 796 800 801 802 804 805 807 808 810 812 814 815 816 817 818 818 818 818 818 819 819 820 821 822 822 823 823 823 824 824 825 825 826 827 827 827 827 827 828 828 828 828 828 828 829 829 829 829 830 831 831 832 831 832 831 832 832 832 833 833 834 834
789 790 794 801 797 795 794 794 790 790 783 765 758 748 742 744 744 747 755 767 768 767 764 758 759 770 789 797 798 799 796 797 795 796 797 798 801 801 803 805 806 808 810 811 813 815 816 817 818 819 819 819 819 819 819 820 821 821 822 822 823 824 824 825 825 826 826 826 827 827 827 827 827 828 828 828 828 828 828 829 829 829 829 830 831 831 832 831 832 832 832 832 833 834 834 835 835
785 786 790 798 797 796 793 791 787 789 780 760 753 747 744 744 743 748 752 763 771 762 761 761 757 771 788 791 798 798 795 797 795 797 798 800 802 803 806 806 808 810 812 813 814 816 816 818 818 819 819 819 819 819 820 820 821 822 822 823 824 824 825 825 826 826 826 827 827 827 827 828 828 828 828 829 828 828 828 829 829 829 829 830 831 831 832 832 832 832 832 832 833 834 834 835 836
781 784 791 797 798 800 795 787 785 788 777 758 751 746 752 752 744 751 749 750 764 762 762 766 759 766 780 782 789 792 794 795 796 798 798 801 804 805 807 808 811 812 813 815 815 817 817 818 818 819 820 819 820 820 820 821 822 823 823 825 825 825 825 826 826 826 827 827 827 827 828 828 829 829 829 829 829 829 828 829 830 830 830 830 831 832 832 832 832 832 832 833 833 834 835 835 836
778 784 795 799 800 801 793 784 782 781 772 757 751 747 757 762 751 751 748 745 761 767 765 767 763 764 774 780 785 789 793 795 796 798 799 803 805 807 809 810 812 813 815 817 817 818 818 819 819 819 820 820 820 820 821 822 823 824 825 826 826 826 826 826 826 826 827 827 827 828 828 829 829 830 830 830 830 830 829 830 830 831 831 831 831 832 832 832 832 832 832 833 833 834 835 836 836
781 788 796 801 800 794 783 778 774 771 769 759 752 750 756 764 760 754 755 759 764 769 771 770 770 772 775 781 786 790 793 795 796 798 801 804 806 808 810 812 814 815 816 818 818 819 819 820 819 820 820 820 821 821 822 822 824 824 826 826 826 827 826 827 826 826 827 827 828 828 829 830 830 831 830 830 830 831 831 831 831 831 831 831 832 832 832 832 832 833 833 833 833 834 835 836 836
782 788 794 797 791 782 773 772 768 767 768 758 752 752 753 759 759 755 763 773 769 775 782 777 779 782 783 785 789 792 792 794 796 798 801 804 806 808 809 812 815 816 817 818 819 819 820 820 820 820 820 821 821 822 823 823 825 825 826 826 826 827 827 827 826 826 827 827 828 829 829 830 830 831 831 831 831 831 831 831 831 831 832 832 832 832 832 832 833 833 834 834 834 834 835 836 836
779 783 792 790 781 775 768 767 766 764 764 758 754 750 752 755 752 756 768 777 774 779 785 782 786 788 788 789 790 792 793 796 797 798 801 804 807 809 810 812 815 817 818 819 819 820 820 820 820 820 820 821 822 822 823 824 825 825 825 826 826 827 827 827 826 826 827 828 828 829 830 830 831 831 831 831 831 831 832 832 832 831 832 832 832 832 832 832 833 834 834 834 834 835 836 836 837
777 780 788 781 775 775 765 762 761 760 761 758 753 750 754 753 750 756 766 779 784 782 778 778 784 785 787 789 790 793 794 797 799 800 803 806 808 810 811 813 816 817 818 819 819 820 820 820 820 821 821 822 822 822 823 825 825 825 824 825 826 827 828 827 827 827 828 828 829 829 830 830 831 831 831 831 831 831 831 832 832 831 832 832 832 832 832 833 833 834 835 835 835 835 836 836 836
778 777 778 774 772 774 764 759 757 755 757 754 753 754 755 752 754 757 760 775 785 780 775 774 777 781 784 787 790 793 795 799 800 801 804 806 808 810 812 814 816 817 818 819 819 820 820 821 821 822 823 823 823 823 824 826 825 824 824 825 826 827 828 827 827 827 828 828 828 829 829 830 830 830 831 830 831 831 831 832 832 831 831 831 832 832 832 833 834 834 835 836 836 836 836 837 836
780 777 772 769 769 770 764 758 755 753 756 755 754 753 751 754 760 759 758 769 775 773 773 774 777 780 783 786 790 794 797 800 801 802 804 805 807 808 811 813 815 817 818 819 819 820 820 821 822 823 824 824 824 824 825 826 825 825 824 826 827 827 827 827 827 828 828 828 828 829 829 830 830 830 830 830 830 831 831 832 832 832 831 831 831 831 832 833 834 835 835 836 836 837 837 837 837
780 779 771 767 765 767 763 758 754 751 754 754 751 750 751 757 763 762 765 770 770 772 772 773 779 782 784 788 791 795 798 800 802 803 804 804 806 807 810 812 814 816 817 819 819 820 820 821 822 823 824 825 825 825 825 826 825 825 826 827 827 827 827 827 827 828 828 828 828 829 829 829 830 830 830 830 830 830 831 831 832 832 831 831 831 831 832 833 834 835 835 836 836 837 837 838 838
777 777 770 765 764 763 760 757 753 749 750 751 750 752 755 756 759 766 772 773 771 773 774 776 782 785 788 791 794 797 799 801 802 803 805 805 806 807 810 812 814 815 817 818 819 820 820 821 822 824 825 825 825 824 825 826 826 826 826 827 827 827 827 827 828 828 828 828 828 829 829 829 829 830 830 830 830 830 831 831 831 832 832 831 830 831 832 833 834 834 835 836 836 837 837 837 837
771 769 768 764 763 761 759 758 753 748 747 750 753 757 760 756 759 774 776 772 773 773 777 780 783 788 792 795 796 798 799 801 802 803 805 805 807 808 811 813 814 815 817 818 819 819 820 821 822 824 825 825 825 824 825 826 827 827 827 827 827 827 827 828 828 828 828 828 828 828 829 829 829 830 830 830 830 830 831 831 831 831 831 831 831 831 832 832 833 834 835 835 836 836 836 837 837
765 764 765 762 762 760 759 759 755 751 748 750 757 760 763 758 764 785 782 771 772 775 781 783 785 791 794 796 798 798 800 801 803 804 806 808 809 810 811 813 815 816 817 818 819 819 820 822 823 824 825 825 824 824 825 826 827 827 827 827 827 827 827 828 828 828 828 828 828 828 828 829 829 829 830 830 830 830 831 831 831 831 830 831 831 832 832 833 833 834 835 835 835 835 835 836 836
763 764 765 761 761 761 760 760 757 755 753 751 755 759 763 763 769 782 779 772 773 777 785 787 788 793 794 797 799 800 802 804 805 806 808 810 810 810 811 813 815 816 817 818 819 820 821 822 823 824 825 825 825 826 826 826 827 827 827 828 827 827 827 828 828 828 828 828 828 828 828 828 828 828 829 829 829 830 830 830 831 830 830 831 831 832 833 833 834 834 835 835 835 835 835 836 836
763 762 767 765 761 764 761 760 758 756 758 752 754 766 770 772 776 774 772 773 775 778 787 790 791 794 796 798 800 802 804 806 808 808 810 811 811 812 812 814 816 817 818 819 820 820 821 822 823 824 825 826 826 827 827 827 826 826 827 828 828 827 827 828 828 828 828 828 828 828 828 827 827 828 828 828 828 829 829 830 830 830 830 831 831 832 833 833 834 834 835 835 835 835 835 835 835
764 761 766 768 769 769 761 758 758 757 759 751 758 781 781 775 777 771 770 773 776 784 789 791 793 795 799 801 802 804 806 807 809 810 812 813 814 815 815 817 818 818 820 820 821 821 821 822 823 825 826 826 827 828 828 827 826 826 827 828 828 828 827 828 828 828 828 828 828 827 827 827 827 827 827 828 828 828 829 829 829 829 830 830 831 832 833 833 833 834 834 835 835 834 834 834 834
767 766 766 770 777 775 760 758 760 760 760 751 762 787 783 778 785 778 774 773 776 788 792 793 795 797 801 803 805 806 807 809 810 812 814 814 816 816 817 819 819 820 821 821 822 821 822 822 824 825 826 827 828 829 828 828 827 826 827 828 828 828 828 828 828 828 828 828 827 827 826 826 826 827 827 827 828 828 828 829 829 829 830 830 831 832 833 833 833 833 834 834 834 834 833 833 833
769 775 778 775 777 775 763 757 759 761 761 754 766 785 781 784 796 788 781 779 778 789 794 795 799 801 804 805 806 808 808 810 812 814 815 816 817 818 818 819 820 821 821 822 822 822 823 823 825 826 827 827 828 829 829 828 827 827 827 828 829 829 829 829 828 828 828 828 827 826 826 826 826 826 826 827 827 827 827 828 828 828 829 830 830 831 832 833 833 833 833 833 832 832 832 831 832
774 779 783 779 776 778 770 759 756 757 761 761 767 779 779 784 793 786 783 782 781 790 796 798 803 805 806 807 809 809 811 812 814 816 817 818 819 819 820 820 821 822 822 823 823 824 824 824 826 827 827 827 828 829 829 828 827 827 828 828 829 829 830 829 829 828 827 827 826 826 826 826 825 825 826 826 826 827 827 827 828 828 829 829 830 831 831 832 832 832 831 831 831 830 831 830 830
783 780 780 778 776 778 777 767 758 756 763 768 770 780 785 786 787 784 783 781 783 792 798 802 806 807 808 809 811 812 813 814 815 817 818 820 820 820 822 822 823 823 823 824 824 825 825 826 827 827 827 827 828 829 829 829 828 828 828 828 829 829 829 829 828 828 827 826 826 826 826 825 825 825 825 825 825 826 826 827 828 829 829 829 830 830 831 831 831 830 829 829 828 828 828 828 828
786 782 780 779 777 777 778 770 761 759 764 770 779 794 795 790 789 789 787 783 786 796 800 805 808 808 810 810 812 815 815 816 817 817 819 821 822 822 823 824 824 824 825 825 825 826 826 827 828 827 828 827 828 829 829 829 829 829 829 828 828 828 827 827 827 827 826 826 825 825 825 825 825 824 824 825 825 825 826 827 828 829 829 830 830 830 829 829 828 828 827 826 825 825 824 824 825
779 778 777 779 778 778 775 767 760 759 767 777 789 801 801 799 800 798 795 790 792 801 804 807 809 809 811 813 815 818 819 820 818 818 819 821 822 823 824 824 825 825 826 827 827 827 827 827 828 828 828 828 828 829 829 829 829 829 828 828 827 827 826 826 826 826 826 826 825 825 824 824 824 824 824 824 825 825 826 827 828 829 829 829 830 829 827 825 824 824 824 824 823 823 822 822 823
775 777 777 776 777 779 772 766 760 755 772 793 797 801 805 806 808 804 802 800 800 806 807 807 809 811 814 816 819 820 822 822 819 819 820 821 823 823 825 825 825 826 827 828 828 828 828 827 828 828 828 828 829 829 829 829 828 828 828 828 828 827 826 825 824 825 825 825 825 825 824 824 824 824 824 824 825 825 826 827 828 828 828 830 829 826 823 822 823 823 823 823 823 822 822 822 823
776 780 780 779 779 777 769 764 762 757 780 807 802 804 811 808 810 810 806 807 808 808 808 809 811 813 816 819 821 823 824 822 820 821 822 823 824 825 826 826 827 828 829 829 829 829 828 828 828 828 828 828 828 828 828 828 828 827 827 828 828 827 826 825 824 823 824 824 824 824 824 824 824 824 824 824 825 825 825 826 826 827 829 829 826 823 822 822 822 822 822 821 822 822 822 823 823
778 781 782 784 778 776 771 762 762 763 785 810 804 807 819 813 812 815 813 813 812 810 809 811 812 815 818 820 822 824 825 824 822 824 825 825 826 826 827 828 829 830 830 830 831 830 829 829 829 829 829 828 828 828 828 828 828 827 826 826 826 826 826 825 824 823 822 822 822 822 822 822 823 823 824 824 824 824 824 824 824 826 828 825 821 820 821 821 820 820 820 820 820 821 821 820 821
778 781 784 785 776 778 778 767 767 771 785 803 803 809 820 818 817 818 818 816 814 814 813 814 815 817 820 821 823 825 826 825 825 826 827 826 827 828 828 829 830 831 831 831 832 831 831 831 830 830 830 830 830 830 830 830 829 828 827 826 826 826 826 825 823 823 822 821 821 821 821 822 822 822 823 823 823 823 823 822 823 824 824 822 821 820 820 820 819 818 818 819 819 819 818 817 817
777 777 779 780 775 776 776 770 776 785 793 795 797 816 826 821 822 822 819 818 816 816 816 818 820 820 821 822 824 827 826 826 827 829 829 828 828 830 830 831 832 832 832 833 833 833 833 832 832 832 832 832 832 832 832 831 831 830 829 828 828 827 826 825 824 822 822 821 821 820 821 821 821 821 821 821 821 821 821 821 821 821 820 821 821 820 819 818 818 817 817 818 818 817 816 815 814
779 772 769 771 771 772 772 773 785 804 814 796 786 817 836 825 824 825 821 821 820 820 820 822 823 823 824 826 827 828 827 827 829 830 830 830 831 831 831 832 833 834 834 835 835 835 835 834 834 834 834 834 834 834 834 833 832 831 830 830 830 830 829 828 827 825 823 822 821 820 820 821 820 820 820 820 820 820 820 819 819 819 819 819 820 819 818 817 817 816 817 816 816 815 814 813 812
781 765 758 763 767 770 770 773 788 806 811 791 775 803 834 831 826 824 823 824 824 822 823 824 824 825 826 827 829 829 829 830 831 831 831 832 832 831 833 835 835 835 836 836 836 836 836 836 836 835 835 836 835 835 835 834 833 832 832 832 832 832 832 831 830 829 827 825 824 823 821 821 820 820 821 821 821 820 820 819 819 818 818 817 817 817 817 816 815 815 815 814 813 813 812 811 809
775 756 752 761 764 768 767 770 785 791 788 785 777 789 821 832 825 823 823 826 828 825 825 826 824 825 827 827 829 829 830 832 832 832 832 833 833 833 835 836 836 837 836 836 836 837 837 836 836 836 836 836 836 836 835 835 834 833 833 833 833 832 832 833 832 831 830 828 827 826 825 823 821 819 820 820 820 820 819 818 818 817 816 816 816 815 815 814 814 813 812 812 811 811 810 809 807
762 749 751 758 759 762 761 764 777 780 782 794 789 787 813 832 825 823 826 826 829 827 826 827 825 826 827 828 830 830 831 832 832 833 833 833 834 835 836 836 837 838 837 837 838 838 837 836 837 837 837 837 836 836 835 835 834 834 833 833 832 832 833 833 832 831 830 829 829 828 827 826 825 822 820 820 820 820 819 818 818 817 816 816 815 814 813 812 812 811 810 809 809 808 808 808 806
750 746 751 754 756 756 757 763 771 778 789 797 791 783 802 830 829 824 828 826 825 827 826 826 826 826 828 828 830 831 832 833 833 833 834 834 836 837 836 836 838 839 838 839 839 838 838 838 838 838 838 837 837 836 835 834 834 833 833 832 832 832 832 832 831 831 830 830 829 829 828 827 827 825 824 823 822 822 821 820 819 818 816 815 815 814 812 811 810 809 808 807 806 806 805 805 803
745 747 752 756 759 755 757 765 769 785 797 790 785 780 786 816 828 819 819 816 813 820 824 825 825 826 827 828 830 831 833 834 834 835 835 835 837 838 836 837 839 839 839 840 839 839 839 839 839 839 838 838 836 835 835 834 834 833 833 832 832 832 831 831 830 830 830 830 830 828 828 827 826 826 825 824 823 822 821 820 818 817 816 814 814 812 811 810 809 807 806 805 804 803 802 801 800
746 750 755 763 769 764 767 776 776 792 800 783 781 781 775 797 818 814 809 807 808 814 818 822 824 825 827 828 830 831 833 834 834 835 836 837 838 839 837 838 839 839 840 840 839 840 840 840 840 839 839 838 837 836 835 834 834 834 833 833 832 832 832 831 831 831 831 830 830 828 827 826 825 824 824 823 822 821 819 818 817 816 814 813 812 811 810 808 807 805 804 802 801 800 799 798 797
748 754 761 774 783 781 784 792 791 792 788 775 777 781 780 798 815 814 809 808 810 813 816 819 821 823 826 828 830 831 832 834 835 836 837 838 839 839 839 839 839 840 840 841 841 841 841 841 841 840 840 839 838 837 835 835 834 834 834 833 833 833 832 832 832 832 831 830 829 828 827 826 825 823 822 822 821 820 818 817 815 814 813 812 810 809 808 806 805 803 801 800 798 798 797 796 794
751 756 764 776 786 791 795 798 796 790 782 778 776 777 792 810 816 814 812 811 812 814 817 819 820 823 826 827 829 831 832 834 835 836 837 839 839 840 840 839 839 840 842 842 842 842 842 842 842 841 841 840 838 837 836 835 835 834 834 834 833 833 832 832 832 832 831 830 829 828 827 826 825 824 823 822 820 819 817 816 814 813 811 810 808 807 805 804 802 800 799 797 796 795 795 793 791
747 747 754 766 771 778 789 789 787 786 786 789 787 788 805 817 816 814 814 813 813 815 818 821 823 825 826 827 830 831 833 835 836 837 838 839 840 840 841 840 839 841 843 844 843 843 843 843 842 841 841 840 839 838 837 836 836 836 835 835 834 834 833 833 833 832 831 830 828 827 826 825 824 824 823 821 820 818 816 814 812 811 809 807 806 804 802 800 799 797 795 794 793 792 792 790 789
744 740 748 760 756 757 773 779 776 779 788 799 805 810 817 818 816 815 813 815 817 817 820 822 824 826 827 829 832 833 835 836 837 838 838 840 840 841 840 840 841 842 844 845 844 844 844 843 843 841 841 841 840 839 839 838 838 838 837 836 835 835 834 833 832 832 830 829 828 826 825 824 823 822 821 820 818 816 814 812 810 809 806 804 802 800 799 797 795 794 792 791 790 789 789 787 785
742 743 748 749 741 744 763 778 779 778 790 809 819 822 823 821 821 819 816 819 820 820 821 822 824 826 828 831 833 834 835 836 837 838 839 840 840 840 840 840 843 844 845 845 845 845 844 844 843 842 841 841 841 840 840 840 840 840 839 838 837 836 835 834 832 831 830 828 827 825 824 822 821 820 819 818 816 814 813 811 809 807 805 803 801 799 797 795 793 792 790 788 787 786 785 783 782
737 745 743 738 739 744 753 772 783 782 796 816 820 820 823 822 823 824 821 823 823 821 821 822 824 827 829 832 834 834 835 836 838 838 839 840 839 840 841 843 844 845 845 845 845 845 845 845 844 843 843 842 842 842 842 842 842 842 841 839 838 837 835 834 833 832 830 828 827 825 823 822 821 819 818 817 815 814 813 811 809 807 806 804 801 799 797 794 792 790 788 786 785 783 782 780 778
727 733 730 736 751 757 757 769 780 787 809 825 820 819 821 816 819 822 821 822 822 821 821 823 826 828 830 833 834 835 836 836 837 838 839 840 841 842 843 845 846 846 846 846 846 846 846 846 845 845 845 843 843 843 843 843 843 843 843 841 839 838 837 836 834 833 831 829 828 827 825 823 822 820 819 817 816 815 814 812 810 809 807 805 802 800 797 795 792 790 787 785 783 781 779 777 775
723 726 729 734 744 751 755 763 768 781 810 825 818 818 816 807 810 815 816 817 817 818 821 824 827 829 831 833 834 835 836 837 838 839 840 842 844 845 845 846 847 847 847 847 847 847 847 847 847 846 846 845 844 844 844 844 844 844 843 842 841 840 838 837 836 834 833 832 831 829 827 826 824 822 821 819 818 816 815 814 812 810 807 805 803 800 798 795 792 789 786 784 781 779 777 775 772
730 734 739 739 740 743 750 758 760 771 798 814 815 817 809 799 800 804 808 811 811 815 820 823 826 829 831 832 834 835 835 837 839 840 842 844 845 846 846 847 848 847 847 847 848 848 848 848 848 847 847 847 846 846 846 846 845 844 844 843 842 841 840 839 837 836 835 834 833 832 830 828 826 824 822 820 819 818 817 816 814 811 808 805 803 800 798 795 792 789 786 783 781 778 776 773 771
728 734 738 740 743 746 756 765 762 766 784 796 803 807 804 800 798 798 802 806 810 815 819 822 827 828 831 833 833 834 835 837 840 841 843 845 845 847 847 847 848 848 848 848 849 850 850 849 849 849 848 848 848 848 847 847 846 845 845 844 843 843 841 840 838 837 837 836 835 834 832 830 828 827 825 822 821 820 818 817 815 812 808 806 803 800 798 795 792 789 785 783 780 778 775 772 769